Stanton, MN

1:24 PM CDT on April 23, 2018 (GMT -0500)
Stanton

Weather History for KSYN - November, 2011

Change the Weather History Date:

Tuesday, November 15, 2011

  Actual Average (KLVN) Record (KLVN)
Temperature  
Mean Temperature 40 °F -  
Max Temperature 51 °F 41 °F 69 °F (1953)
Min Temperature 28 °F 25 °F 0 °F (2014)
Degree Days  
Heating Degree Days 26    
Moisture  
Dew Point 22 °F    
Average Humidity 49    
Maximum Humidity 73    
Minimum Humidity 29    
Precipitation  
Precipitation 0.00 in - - ()
Sea Level Pressure  
Sea Level Pressure 29.67 in    
Wind  
Wind Speed 9 mph (WSW)    
Max Wind Speed 29 mph    
Max Gust Speed 36 mph    
Visibility 10 miles    
Events      
Averages and records for this station are not official NWS values.
T = Trace of Precipitation, MM = Missing Value Source: NWS Daily Summary

Daily Weather History Graph

Daily Weather History Graph

Search for Another Location

Airport or City:

Astronomy

Nov. 15, 2011 Rise Set
Actual Time 7:08 AM CST 4:44 PM CST
Civil Twilight 6:36 AM CST 5:16 PM CST
Nautical Twilight 6:01 AM CST 5:51 PM CST
Astronomical Twilight 5:26 AM CST 6:25 PM CST
Moon 8:53 PM CST (11/15) 11:09 AM CST (11/15)
Length of Visible Light 10h 39m
Length of Day
9h 36m
Waning Gibbous, 79% of the Moon is Illuminated
Nov 15
Waning Gibbous
Nov 18
Last Quarter
Nov 25
New
Dec 2
First Quarter
Dec 10
Full

Hourly Weather History & Observations

Time (CST) Temp. Windchill Dew Point Humidity Pressure Visibility Wind Dir Wind Speed Gust Speed Precip Events Conditions
12:14 AM 32.9 °F 27.5 °F 20.8 °F 61% 29.61 in 10.0 mi South 5.8 mph - N/A   Clear
12:33 AM 32.0 °F 27.5 °F 20.3 °F 62% 29.61 in 10.0 mi South 4.6 mph - N/A   Clear
12:54 AM 29.3 °F - 18.1 °F 63% 29.59 in 10.0 mi Calm Calm - N/A   Clear
1:14 AM 28.9 °F - 19.9 °F 69% 29.58 in 10.0 mi Calm Calm - N/A   Clear
1:33 AM 28.8 °F - 19.4 °F 68% 29.57 in 10.0 mi Calm Calm - N/A   Clear
1:54 AM 30.2 °F 26.7 °F 20.7 °F 68% 29.57 in 10.0 mi SW 3.5 mph - N/A   Clear
2:14 AM 29.3 °F - 20.8 °F 71% 29.56 in 10.0 mi Calm Calm - N/A   Clear
2:34 AM 28.6 °F - 20.8 °F 73% 29.55 in 10.0 mi Calm Calm - N/A   Clear
3:13 AM 34.5 °F 30.4 °F 22.3 °F 61% 29.54 in 10.0 mi South 4.6 mph - N/A   Clear
3:34 AM 38.8 °F 35.4 °F 22.8 °F 53% 29.53 in 10.0 mi South 4.6 mph - N/A   Clear
3:53 AM 39.9 °F 37.8 °F 23.5 °F 52% 29.52 in 10.0 mi SE 3.5 mph - N/A   Scattered Clouds
4:14 AM 38.8 °F 36.5 °F 23.5 °F 54% 29.51 in 10.0 mi NNE 3.5 mph - N/A   Scattered Clouds
4:34 AM 40.3 °F - 24.4 °F 53% 29.50 in 10.0 mi Calm Calm - N/A   Mostly Cloudy
4:53 AM 40.8 °F 35.0 °F 27.1 °F 58% 29.50 in 10.0 mi SW 9.2 mph - N/A   Mostly Cloudy
5:13 AM 46.9 °F - 27.9 °F 48% 29.51 in 10.0 mi SSW 13.8 mph 25.3 mph N/A   Scattered Clouds
5:53 AM 42.4 °F 39.6 °F 25.0 °F 50% 29.51 in 10.0 mi WSW 4.6 mph - N/A   Clear
7:14 AM 40.5 °F 36.5 °F 29.1 °F 64% 29.53 in 10.0 mi South 5.8 mph - N/A   Clear
7:34 AM 41.9 °F 34.6 °F 30.4 °F 64% 29.55 in 10.0 mi SSW 13.8 mph - N/A   Clear
7:53 AM 43.7 °F 38.6 °F 32.0 °F 63% 29.56 in 10.0 mi SSW 9.2 mph - N/A   Clear
8:14 AM 43.0 °F 38.2 °F 31.8 °F 65% 29.55 in 10.0 mi South 8.1 mph - N/A   Clear
8:33 AM 43.7 °F 38.1 °F 31.8 °F 63% 29.57 in 10.0 mi South 10.4 mph - N/A   Clear
9:14 AM 47.3 °F - 29.8 °F 51% 29.58 in 10.0 mi SW 11.5 mph - N/A   Clear
9:34 AM 48.6 °F - 27.7 °F 44% 29.58 in 10.0 mi WSW 10.4 mph - N/A   Clear
9:53 AM 48.2 °F - 27.1 °F 44% 29.59 in 10.0 mi WSW 6.9 mph - N/A   Clear
10:14 AM 49.8 °F - 26.4 °F 40% 29.59 in 10.0 mi WSW 9.2 mph - N/A   Clear
10:34 AM 50.0 °F - 25.0 °F 38% 29.59 in 10.0 mi West 10.4 mph - N/A   Clear
10:53 AM 51.1 °F - 24.6 °F 36% 29.60 in 10.0 mi West 10.4 mph - N/A   Clear
11:14 AM 51.8 °F - 24.6 °F 35% 29.60 in 10.0 mi West 12.7 mph - N/A   Clear
11:34 AM 51.1 °F - 24.1 °F 35% 29.61 in 10.0 mi WNW 15.0 mph - N/A   Clear
11:54 AM 51.8 °F - 24.8 °F 35% 29.61 in 10.0 mi WNW 15.0 mph 19.6 mph N/A   Clear
12:14 PM 51.6 °F - 25.3 °F 36% 29.62 in 10.0 mi West 15.0 mph 20.7 mph N/A   Clear
12:33 PM 51.4 °F - 25.7 °F 37% 29.62 in 10.0 mi West 18.4 mph 21.9 mph N/A   Clear
12:54 PM 51.8 °F - 25.9 °F 37% 29.63 in 10.0 mi West 13.8 mph 21.9 mph N/A   Clear
1:13 PM 51.1 °F - 26.1 °F 38% 29.63 in 10.0 mi West 16.1 mph 25.3 mph N/A   Clear
1:54 PM 51.6 °F - 24.8 °F 35% 29.62 in 10.0 mi West 13.8 mph - N/A   Clear
2:13 PM 51.4 °F - 25.7 °F 37% 29.63 in 10.0 mi WSW 20.7 mph 28.8 mph N/A   Clear
2:34 PM 51.1 °F - 26.1 °F 38% 29.65 in 10.0 mi West 19.6 mph 25.3 mph N/A   Clear
2:53 PM 51.1 °F - 24.4 °F 35% 29.65 in 10.0 mi West 23.0 mph 29.9 mph N/A   Clear
3:14 PM 50.9 °F - 25.9 °F 38% 29.66 in 10.0 mi West 20.7 mph 28.8 mph N/A   Clear
3:34 PM 48.7 °F - 25.3 °F 40% 29.68 in 10.0 mi West 20.7 mph 31.1 mph N/A   Clear
3:53 PM 48.4 °F - 21.0 °F 34% 29.70 in 10.0 mi West 24.2 mph 33.4 mph N/A   Clear
4:14 PM 46.6 °F - 16.0 °F 29% 29.71 in 10.0 mi West 28.8 mph 35.7 mph N/A   Clear
4:34 PM 45.0 °F 36.4 °F 17.4 °F 33% 29.73 in 10.0 mi West 23.0 mph 29.9 mph N/A   Clear
4:53 PM 43.7 °F 35.4 °F 17.8 °F 35% 29.74 in 10.0 mi West 19.6 mph 29.9 mph N/A   Clear
5:14 PM 42.3 °F 32.8 °F 19.8 °F 41% 29.76 in 10.0 mi WNW 23.0 mph 29.9 mph N/A   Clear
5:34 PM 40.8 °F 31.4 °F 18.7 °F 41% 29.78 in 10.0 mi West 20.7 mph 29.9 mph N/A   Clear
5:53 PM 40.1 °F 31.3 °F 18.5 °F 42% 29.79 in 10.0 mi West 17.3 mph 27.6 mph N/A   Clear
6:14 PM 38.8 °F 30.8 °F 18.5 °F 44% 29.80 in 10.0 mi West 13.8 mph 18.4 mph N/A   Clear
6:34 PM 38.3 °F 30.5 °F 18.5 °F 45% 29.81 in 10.0 mi West 12.7 mph 19.6 mph N/A   Clear
6:53 PM 38.1 °F 30.7 °F 18.3 °F 45% 29.82 in 10.0 mi West 11.5 mph - N/A   Clear
7:14 PM 37.0 °F 29.8 °F 18.3 °F 47% 29.83 in 10.0 mi West 10.4 mph 16.1 mph N/A   Clear
7:33 PM 36.7 °F 28.4 °F 17.8 °F 46% 29.83 in 10.0 mi West 12.7 mph 18.4 mph N/A   Clear
7:54 PM 36.7 °F 28.9 °F 18.0 °F 47% 29.83 in 10.0 mi West 11.5 mph - N/A   Clear
8:14 PM 36.5 °F 28.2 °F 17.6 °F 46% 29.85 in 10.0 mi West 12.7 mph 20.7 mph N/A   Clear
8:33 PM 35.8 °F 27.3 °F 18.3 °F 49% 29.85 in 10.0 mi West 12.7 mph - N/A   Clear
8:54 PM 35.1 °F 26.4 °F 18.5 °F 51% 29.86 in 10.0 mi West 12.7 mph 21.9 mph N/A   Clear
9:14 PM 35.1 °F 24.5 °F 19.4 °F 53% 29.87 in 10.0 mi West 18.4 mph 24.2 mph N/A   Clear
9:33 PM 34.2 °F 24.4 °F 19.4 °F 55% 29.88 in 10.0 mi West 15.0 mph 21.9 mph N/A   Clear
9:53 PM 33.6 °F 21.9 °F 18.0 °F 53% 29.89 in 10.0 mi West 20.7 mph 26.5 mph N/A   Clear
10:14 PM 32.7 °F 21.4 °F 16.9 °F 52% 29.90 in 10.0 mi West 18.4 mph 24.2 mph N/A   Clear
10:34 PM 32.0 °F 20.1 °F 15.3 °F 50% 29.91 in 10.0 mi WNW 19.6 mph 25.3 mph N/A   Clear
10:53 PM 31.6 °F 21.2 °F 15.4 °F 51% 29.92 in 10.0 mi West 15.0 mph - N/A   Clear
11:14 PM 30.9 °F 21.7 °F 15.8 °F 54% 29.92 in 10.0 mi West 11.5 mph - N/A   Clear
11:34 PM 30.0 °F 21.7 °F 15.4 °F 55% 29.92 in 10.0 mi West 9.2 mph - N/A   Clear
11:53 PM 29.3 °F 21.5 °F 15.1 °F 55% 29.92 in 10.0 mi West 8.1 mph - N/A   Clear